Regional Weather Roundup
Issued by NWS San Angelo, TX

Home | Current Version | Previous Version | Text Only | Print | Product List | Glossary On
Versions: 1 2 3 4 5 6 7 8 9 10 11 12 13 14 15 16 17 18 19 20 21 22 23 24 25 26 27 28 29 30 31 32 33 34 35 36 37 38 39 40 41 42 43 44 45 46 47 48 49 50
000
ASUS44 KSJT 300010
RWRSJT
WEST CENTRAL TEXAS REGIONAL WEATHER ROUNDUP
NATIONAL WEATHER SERVICE SAN ANGELO TX
700 PM CDT SUN MAR 29 2015

NOTE: "FAIR" INDICATES FEW OR NO CLOUDS BELOW 12,000 FEET WITH NO
SIGNIFICANT WEATHER AND/OR OBSTRUCTIONS TO VISIBILITY.

TXZ049-054-064>066-071>073-076>078-098-099-113-114-127-128-139-140-
154-155-168>170-300100
...LOCATIONS ACROSS WEST CENTRAL TEXAS...

CITY           SKY/WX    TMP DP  RH WIND       PRES   REMARKS
SAN ANGELO     SUNNY     89  44  20 S9        29.93S
ABILENE        SUNNY     80  48  32 N23G31    30.01R
DYESS AFB      SUNNY     79  53  40 N21G30    30.01R
JUNCTION       SUNNY     85  50  29 S8        29.98R
SWEETWATER     SUNNY     78  43  28 N24G32    30.09R
BROWNWOOD      SUNNY     84  54  34 S8        29.94R
COLEMAN        CLEAR     89  50  26 NW6       29.96R
SONORA         SUNNY     86  45  23 S8        30.04R
OZONA          FAIR      86  43  22 S12       30.01S
BRADY          SUNNY     88  48  25 S9        29.96R
$$

TEXAS PANHANDLE/OKLAHOMA PANHANDLE

CITY           SKY/WX    TMP DP  RH WIND       PRES   REMARKS
AMARILLO       SUNNY     70  22  16 NE17      30.18R
BORGER         SUNNY     73  21  14 NE10      30.15F
CANADIAN       SUNNY     73  26  17 NE12      30.13R
DALHART        CLOUDY    70  18  13 NE10      30.20S
DUMAS          CLEAR     69  21  16 NE9       30.19R
GUYMON         NOT AVBL
HEREFORD       CLEAR     72  23  16 NE12G22   30.20R
PAMPA          CLEAR     69  23  17 NE15G21   30.17S
PERRYTON       SUNNY     69  26  19 NE12      30.15R
$$

SOUTHERN PANHANDLE/SOUTH PLAINS/ROLLING PLAINS

CITY           SKY/WX    TMP DP  RH WIND       PRES   REMARKS
LUBBOCK        PTSUNNY   76  24  14 NE22G28   30.13R
SNYDER         SUNNY     78  41  27 NE22G28   30.08R
CHILDRESS      SUNNY     79  21  11 NE15G22   30.09R
SEMINOLE       CLEAR     80  29  15 NE14G24   30.11R
$$

PERMIAN BASIN

CITY           SKY/WX    TMP DP  RH WIND       PRES   REMARKS
MIDLAND        MOSUNNY   84  39  20 NE25G35   30.04R
ODESSA         SUNNY     86  33  15 NE17      30.05R
WINK           SUNNY     87  27  11 NE15      30.01R
$$

FAR WEST/SOUTHWEST MOUNTAINS/TRANS PECOS

CITY           SKY/WX    TMP DP  RH WIND       PRES   REMARKS
ALPINE         CLEAR     81  20  10 E10       30.19R
DRYDEN           N/A     88  47  24 SE12      29.98R
EL PASO        CLOUDY    86   9   5 W13       30.08S
FORT STOCKTON  SUNNY     88  18   7 NW6       30.03S
GUADALUPE PASS CLOUDY    74  23  15 NE13      30.20R
MARFA          SUNNY     79  19  11 NE6       30.18R
PECOS          CLEAR     88  33  13 W6        30.00S
$$

DALLAS/FORT WORTH METROPLEX

CITY           SKY/WX    TMP DP  RH WIND       PRES   REMARKS
DFW AIRPORT    PTCLDY    80  55  42 S17       29.95S
FTW MEACHAM    CLEAR     81  57  43 SE14G23   29.94S
DAL-EXECUTIVE  CLEAR     81  53  37 S12G21    29.97R
GRAND PRAIRIE  CLEAR     81  54  39 S13G18    29.98R
ADDISON        CLEAR     82  52  34 S10G20    29.98R
MESQUITE       NOT AVBL
LANCASTER      CLEAR     79  53  41 S13       30.00R
$$

NORTH CENTRAL TEXAS

CITY           SKY/WX    TMP DP  RH WIND       PRES   REMARKS
SHRMAN/DENISON CLOUDY    79  63  58 S5        30.00R
GAINESVILLE    CLOUDY    79  58  48 N3        30.01R
BRIDGEPORT     PTCLDY    81  55  40 N18G24    29.97R
DENTON         PTCLDY    82  58  43 SE13      29.94S
WAXAHACHIE     CLEAR     79  55  42 S16       30.00R
GRANBURY         N/A     85  53  32 S12G21    29.94S
$$

WESTERN NORTH TEXAS

CITY           SKY/WX    TMP DP  RH WIND       PRES   REMARKS
WICHITA FALLS  CLEAR     75  46  35 N21       30.02R
VERNON         CLEAR     78  24  13 NE13      30.07R
BRECKENRIDGE   CLEAR     82  47  29 N15G24    29.98R
COMANCHE       SUNNY     83  55  37 S13G18    29.95S
$$

CENTRAL AND SOUTH CENTRAL TEXAS

CITY           SKY/WX    TMP DP  RH WIND       PRES   REMARKS
AUSTIN/BERGSTM CLEAR     77  56  48 S18G29    30.01S
WACO           CLEAR     77  55  46 S17       29.97S
HILLSBORO      CLEAR     79  56  44 S15       29.99R
TEMPLE         CLEAR     79  54  41 S24G33    29.98R
KILLEEN-GRAY   CLEAR     80  53  39 S15G25    29.98R
FORT HOOD      CLEAR     80  53  38 S18G24    29.98R
GEORGETOWN     CLEAR     81  54  39 S16G25    29.99S
LAGO VISTA     FAIR      80  53  38 S14G23    30.01S
SAN MARCOS     CLEAR     79  55  44 S18       30.03S
NEW BRAUNFELS  CLEAR     80  59  48 S14       30.01S
RANDOLPH AFB   CLEAR     80  56  44 S16       30.02F
SAN ANTONIO    SUNNY     80  59  48 SE16G22   30.02F
STINSON        SUNNY     80  60  50 SE9       30.01R
PLEASANTON     NOT AVBL
LA GRANGE      CLEAR     77  58  51 S15G24    30.04S
GIDDINGS       CLEAR     76  54  45 S14G20    30.08R
$$

EAST TEXAS

CITY           SKY/WX    TMP DP  RH WIND       PRES   REMARKS
PARIS          NOT AVBL
CLARKSVILLE    NOT AVBL
TYLER          CLEAR     80  53  39 S16G26    29.98R
LONGVIEW       CLEAR     80  56  43 S17G25    29.99S
PALESTINE      CLEAR     81  53  37 S14G24    30.01S
NACOGDOCHES    CLEAR     77  57  50 S13       30.05S
$$

TEXAS HILL COUNTRY AND EDWARDS PLATEAU

CITY           SKY/WX    TMP DP  RH WIND       PRES   REMARKS
LLANO          CLEAR     82  55  39 S9        30.01R
HORSESHOE BAY  FAIR      81  54  39 S14G22    30.00R
KERRVILLE      SUNNY     78  59  52 S12G22    30.03S
FREDERICKSBRG  SUNNY     78  53  41 S17       30.02R
ROCKSPRINGS    NOT AVBL
HONDO          SUNNY     81  58  45 SE13      30.03S
UVALDE         CLEAR     83  57  40 SE14      29.99F
DEL RIO        SUNNY     87  54  32 S16       29.94S
$$

SOUTHEAST TEXAS

CITY           SKY/WX    TMP DP  RH WIND       PRES   REMARKS
COLLEGE STN    CLEAR     77  56  48 S17G29    30.04S
CALDWELL       CLEAR     75  55  50 SE15G21   30.06R
CROCKETT       CLEAR     81  61  50 S14G21    30.06S
BRENHAM        CLEAR     78  58  50 S15G21    30.07R
HUNTSVILLE     CLEAR     77  58  51 S8G18     30.06R
CONROE         CLEAR     77  54  44 S16       30.08S
HOUSTON BUSH   PTCLDY    76  60  57 S10G22    30.09S
HOUSTON HOBBY  PTCLDY    74  61  63 S14G23    30.11R
PERLAND        CLEAR     75  60  59 S14G21    30.13S
WHARTON        CLEAR     73  63  71 S20G28    30.11S
$$

THE UPPER TEXAS COAST

CITY           SKY/WX    TMP DP  RH WIND       PRES   REMARKS
ORANGE         CLEAR     71  60  67 S13       30.17R
PORT ARTHUR    PTCLDY    73  62  68 S10G22    30.14R
GALVESTON      CLEAR     70  66  87 S12       30.14S
ANGLETON       PTCLDY    71  63  75 S17       30.13R
BAY CITY       CLEAR     74  64  73 S16       30.12R
$$

TEXAS COASTAL BEND, RIO GRANDE PLAINS DEEP SOUTH TEXAS

CITY           SKY/WX    TMP DP  RH WIND       PRES   REMARKS
VICTORIA       CLEAR     75  61  61 S20G26    30.08R
BEEVILLE       FAIR      75  64  67 S20G30    30.04R
ROCKPORT       CLEAR     73  64  73 S10G22    30.08R
PORT ARANSAS   CLEAR     70  65  86 S12       30.08S
PORT LAVACA    MOCLDY    73  65  78 S18       30.10S
CORPUS CHRISTI CLEAR     74  63  68 SE25G33   30.06S
KINGSVILLE NAS CLEAR     77  67  71 SE21G28   30.04S
COTULLA        SUNNY     85  56  37 S14G22    29.99R
LAREDO         SUNNY     86  58  38 SE18      30.00S
BROWNSVILLE    CLEAR     75  64  68 S20G28    30.09R
PORT ISABEL    PTCLDY    75  64  68 S21G29    30.08R
HEBBRONVILLE   NOT AVBL
MCALLEN        SUNNY     79  63  57 SE22G30   30.05S
WESLACO        CLEAR     76  61  60 S20G26    30.06S
FALFURRIAS     CLEAR     80  60  49 S13       30.03S
EDINBURG       CLEAR     79  61  53 SE16G25   30.06R
$$



USA.gov is the U.S. government's official web portal to all federal, state and local government web resources and services.